Weather History for Catania, Italy

Change the Weather History Date:

Wednesday, January 23, 2013

  Actual Average Record
Temperature  
Mean Temperature 48 °F -  
Max Temperature 60 °F 62 °F 140 °F (2011)
Min Temperature 37 °F 42 °F 33 °F (1999)
Degree Days  
Heating Degree Days 16    
Moisture  
Dew Point 40 °F    
Average Humidity 71    
Maximum Humidity 87    
Minimum Humidity 45    
Precipitation  
Precipitation 0.00 in 0.08 in - ()
Sea Level Pressure  
Sea Level Pressure 29.83 in    
Wind  
Wind Speed 6 mph ()    
Max Wind Speed 14 mph    
Max Gust Speed -    
Visibility 6.2 miles    
Events Rain    
Averages and records for this station are not official NWS values.
T = Trace of Precipitation, MM = Missing Value Source: Averaged Metar Reports

Daily Weather History Graph

Daily Weather History Graph

Search for Another Location

Airport:

Trip Planner

Search our weather history database for the weather conditions in past years. The results will help you decide how hot, cold, wet, or windy it might be!

Date:

Astronomy

Jan. 23, 2013 Rise Set
Actual Time 7:09 AM CET 5:14 PM CET
Civil Twilight 6:41 AM CET 5:42 PM CET
Nautical Twilight 6:09 AM CET 6:13 PM CET
Astronomical Twilight 5:38 AM CET 6:44 PM CET
Moon 2:11 PM CET (1/23) 4:05 AM CET (1/23)
Length of Visible Light 11h 00m
Length of Day
10h 04m
Waxing Gibbous, 87% of the Moon is Illuminated
Jan 23
Waxing Gibbous
Jan 27
Full
Feb 3
Last Quarter
Feb 10
New
Feb 17
First Quarter

Hourly Weather History & Observations

Time (CET) Temp. Windchill Dew Point Humidity Pressure Visibility Wind Dir Wind Speed Gust Speed Precip Events Conditions
4:50 AM 37.4 °F 31.4 °F 33.8 °F 87% 29.92 in - WSW 8.1 mph - N/A   Clear
5:20 AM 37.4 °F 32.1 °F 32.0 °F 81% 29.92 in - West 6.9 mph - N/A   Clear
5:50 AM 37.4 °F 30.8 °F 32.0 °F 81% 29.92 in - WSW 9.2 mph - N/A   Clear
6:20 AM 37.4 °F 32.8 °F 32.0 °F 81% 29.95 in - SW 5.8 mph - N/A   Clear
6:50 AM 37.4 °F 33.8 °F 32.0 °F 81% 29.92 in 6.2 mi SSW 4.6 mph - N/A   Partly Cloudy
7:20 AM 39.2 °F 33.6 °F 33.8 °F 81% 29.95 in 6.2 mi SSW 8.1 mph - N/A   Partly Cloudy
7:50 AM 37.4 °F 32.1 °F 32.0 °F 81% 29.95 in 6.2 mi WSW 6.9 mph - N/A   Partly Cloudy
8:20 AM 37.4 °F 30.8 °F 33.8 °F 87% 29.95 in 6.2 mi WSW 9.2 mph - N/A   Partly Cloudy
8:50 AM 39.2 °F 33.0 °F 35.6 °F 87% 29.95 in 6.2 mi WSW 9.2 mph - N/A   Partly Cloudy
9:20 AM 42.8 °F 38.6 °F 37.4 °F 81% 29.95 in 6.2 mi West 6.9 mph - N/A   Scattered Clouds
9:50 AM 50.0 °F - 41.0 °F 71% 29.95 in 6.2 mi WSW 4.6 mph - N/A   Scattered Clouds
10:20 AM 53.6 °F - 41.0 °F 62% 29.95 in 6.2 mi South 3.5 mph - N/A   Scattered Clouds
10:50 AM 53.6 °F - 41.0 °F 62% 29.92 in 6.2 mi Variable 2.3 mph - N/A   Scattered Clouds
11:20 AM 57.2 °F - 42.8 °F 59% 29.92 in 6.2 mi ESE 3.5 mph - N/A   Mostly Cloudy
11:50 AM 55.4 °F - 44.6 °F 67% 29.89 in 6.2 mi East 5.8 mph - N/A   Mostly Cloudy
12:20 PM 55.4 °F - 44.6 °F 67% 29.86 in 6.2 mi East 5.8 mph - N/A   Mostly Cloudy
12:50 PM 55.4 °F - 46.4 °F 72% 29.86 in 6.2 mi NE 6.9 mph - N/A   Mostly Cloudy
1:20 PM 57.2 °F - 48.2 °F 72% 29.83 in 6.2 mi East 5.8 mph - N/A   Mostly Cloudy
1:50 PM 59.0 °F - 46.4 °F 63% 29.80 in 6.2 mi SSE 13.8 mph - N/A   Mostly Cloudy
2:20 PM 60.8 °F - 44.6 °F 55% 29.80 in 6.2 mi SSE 10.4 mph - N/A   Mostly Cloudy
2:50 PM 59.0 °F - 44.6 °F 59% 29.80 in 6.2 mi SW 8.1 mph - N/A   Mostly Cloudy
3:20 PM 59.0 °F - 44.6 °F 59% 29.80 in 6.2 mi West 9.2 mph - N/A   Mostly Cloudy
3:50 PM 60.8 °F - 39.2 °F 45% 29.80 in 6.2 mi WSW 13.8 mph - N/A   Mostly Cloudy
4:20 PM 59.0 °F - 39.2 °F 48% 29.80 in 6.2 mi SW 11.5 mph - N/A   Scattered Clouds
4:50 PM 57.2 °F - 39.2 °F 51% 29.77 in 6.2 mi WSW 8.1 mph - N/A   Scattered Clouds
5:20 PM 53.6 °F - 41.0 °F 62% 29.77 in 6.2 mi WSW 8.1 mph - N/A   Scattered Clouds
5:50 PM 53.6 °F - 41.0 °F 62% 29.77 in 6.2 mi WSW 9.2 mph - N/A   Partly Cloudy
6:20 PM 51.8 °F - 41.0 °F 67% 29.80 in 6.2 mi WSW 8.1 mph - N/A   Partly Cloudy
6:50 PM 51.8 °F - 41.0 °F 67% 29.77 in 6.2 mi WSW 3.5 mph - N/A   Partly Cloudy
7:20 PM 50.0 °F - 41.0 °F 71% 29.77 in 6.2 mi Variable 2.3 mph - N/A   Partly Cloudy
7:50 PM 48.2 °F - 39.2 °F 71% 29.77 in 6.2 mi Variable 2.3 mph - N/A   Partly Cloudy
8:20 PM 46.4 °F - 39.2 °F 76% 29.77 in 6.2 mi Variable 2.3 mph - N/A   Partly Cloudy
8:50 PM 46.4 °F - 41.0 °F 81% 29.74 in 6.2 mi Variable 1.2 mph - N/A   Partly Cloudy
9:20 PM 48.2 °F - 39.2 °F 71% 29.74 in 6.2 mi Variable 1.2 mph - N/A   Partly Cloudy
9:50 PM 48.2 °F - 39.2 °F 71% 29.71 in 6.2 mi Calm Calm - N/A   Scattered Clouds
10:20 PM 46.4 °F - 41.0 °F 81% 29.71 in 6.2 mi Variable 1.2 mph - N/A   Partly Cloudy
10:50 PM 48.2 °F - 41.0 °F 76% 29.68 in 6.2 mi Calm Calm - N/A   Partly Cloudy
11:20 PM 48.2 °F - 41.0 °F 76% 29.68 in 6.2 mi Variable 1.2 mph - N/A   Partly Cloudy
11:50 PM 48.2 °F - 42.8 °F 82% 29.65 in 6.2 mi WSW 6.9 mph - N/A Rain Light Rain